Location: Tr�vern
(48.0333°N, 4.6000°W)
Time: 08:19:35
(UTC+00:00)

Cosmos 1992 Rocket - Pass Details

Date: 14 July 2020
Orbit: 758 x 766 km, 74.0° (Epoch: 05 August)

Event Time Altitude Azimuth Distance (km) Brightness Sun altitude
Rises 01:07:13 0° 334° (NNW) 3,246 8.1 -19.7°
Reaches altitude 10° 01:09:38 10° 331° (NNW) 2,316 7.2 -19.6°
Maximum altitude 01:14:48 62° 252° (WSW) 864 4.1 -19.4°
Enters shadow 01:16:37 39° 189° (S) 1,147 4.4 -19.4°
